CZ-4 DEB

Satellite information

Favourite Embed

Satellite Type and Status

DEBRISIN ORBIT

Key statistics

Satellite CZ-4 DEB at a glance.

Uptime

12829

Days in orbit

Revolutions

≈ 14.2

Per day

Orbit

SSO

Sun Synchronous Orbit

Inclination

98.7

Latest

Satellite identification and parameters

Extended collection of information and parameters for CZ-4 DEB.

Object identification

Identified? True

Debris? True

Object name: CZ-4 DEB

International designator: 1990-081CP

Object number (NORAD): 23258

Object ID (CCSDS): 23258

Country: PEOPLES REPUBLIC OF CHINA (PRC)

Current information (Y/N): Y

RCS size: SMALL

Orbital parameters

Period: 101.411 minutes

Inclination: 98.6842 deg

SMA: 7203.604 km

Apoapsis: 841.77 km

Periapsis: 809.169 km

RAAN: 278.0989 deg

Eccentricy: 0.00226285

Argument of periapsis: 29.0383 deg

Mean anomaly: 331.2047 deg

Mean motion: 14.19966153 rev/day

Mean motion (dot): 0.00001006 rev/day2

B* drag term: 0.00049263055 1/REarth

Two-line elements (TLE)

Creation date: Oct. 18, 2025, 2:17 a.m.

Reference frame: TEME

Reference center: EARTH

Epoch: Oct. 17, 2025, 9:51 p.m. UTC

TLE line 0: 0 CZ-4 DEB

TLE line 1: 1 23258U 90081CP 25290.91043979 .00001006 00000-0 49263-3 0 9992

TLE line 2: 2 23258 98.6842 278.0989 0022628 29.0383 331.2047 14.19966153725242

Live tracking on map

Real-time ground track for satellite CZ-4 DEB.

In-orbit conjunctions

A list of the most updated potential collisions computed for object CZ-4 DEB.

Target Orbit TCA Probability of collision Miss distance Type
SL-16 DEB LEO 2025-06-12 16:34:36 0.0001712781 387.0 (m) DEBRIS
CZ-6A DEB LEO 2025-01-27 12:39:33 0.0001046009 79.0 (m) DEBRIS
FENGYUN 1C DEB SSO 2024-09-26 08:35:35 0.0001092049 455.0 (m) DEBRIS

Associated space launch

Chinese polar orbiting meteorological satellite

CZ-4 DEB was lifted into orbit during the mission ‘Long March 4A | Feng Yun 1B’, on board a Long March 4A space rocket.

The launch took place on Sept. 3, 1990, 12:53 a.m. from Launch Complex 7.

For more information about the launch, click the button.

Launch to space Long March 4A | Feng Yun 1B
Long March 4A | Feng Yun 1B

Agency: N/A

Status: Launch Successful

Launch date: Sept. 3, 1990, 12:53 a.m. UTC

Rocket: Long March 4A

Launch pad: Launch Complex 7

Location: Taiyuan Satellite Launch Center, People's Republic of China

...

Latest news about this satellite

There are no fresh news available about this satellite. Check back as we update our databases every day.


Newsletter sign-up

Weekly statistics, charts and insights to help you stay on top of the space industry.